| time (UTC) | temp F | wind direction | speed knots | gust knots | rain 1hr in | rain 24hr in | rain mn in | humidity % | barometer mb |
| 20260510231011 | 72 | 123 | 1.7 | 4.3 | 0.00 | 0.02 | 0.01 | 27 | 1022.5 |
| 20260510230510 | 72 | 53 | 1.7 | 8.7 | 0.00 | 0.02 | 0.01 | 28 | 1022.6 |
| 20260510230032 | 72 | 61 | 4.3 | 8.7 | 0.00 | 0.02 | 0.01 | 30 | 1022.6 |
| 20260510225510 | 72 | 53 | 3.5 | 8.7 | 0.00 | 0.02 | 0.01 | 29 | 1022.6 |
| 20260510225014 | 72 | 5 | 5.2 | 9.6 | 0.00 | 0.02 | 0.01 | 30 | 1022.7 |
| 20260510224532 | 72 | 38 | 3.5 | 9.6 | 0.00 | 0.02 | 0.01 | 31 | 1022.6 |
| 20260510224012 | 72 | 45 | 3.5 | 8.7 | 0.00 | 0.02 | 0.01 | 31 | 1022.7 |
| 20260510223512 | 72 | 337 | 2.6 | 10.4 | 0.00 | 0.02 | 0.01 | 30 | 1022.7 |
| 20260510223029 | 72 | 15 | 4.3 | 10.4 | 0.00 | 0.02 | 0.01 | 29 | 1022.8 |
| 20260510222513 | 72 | 34 | 2.6 | 7.0 | 0.00 | 0.02 | 0.01 | 30 | 1022.8 |
| 20260510222012 | 73 | 94 | 4.3 | 7.0 | 0.00 | 0.02 | 0.01 | 29 | 1022.7 |
| 20260510221540 | 73 | 93 | 2.6 | 8.7 | 0.00 | 0.02 | 0.01 | 32 | 1022.8 |
| 20260510221010 | 73 | 54 | 3.5 | 18.2 | 0.00 | 0.02 | 0.01 | 28 | 1022.8 |
| 20260510220511 | 73 | 85 | 0.9 | 7.8 | 0.00 | 0.02 | 0.01 | 31 | 1022.8 |
| 20260510220030 | 72 | 35 | 3.5 | 7.8 | 0.00 | 0.02 | 0.01 | 28 | 1022.9 |
| 20260510215511 | 72 | 34 | 3.5 | 7.8 | 0.00 | 0.02 | 0.01 | 32 | 1022.9 |
| 20260510215010 | 72 | 91 | 3.5 | 8.7 | 0.00 | 0.02 | 0.01 | 28 | 1022.8 |
| 20260510214536 | 72 | 72 | 2.6 | 8.7 | 0.00 | 0.02 | 0.01 | 30 | 1022.8 |
| 20260510214009 | 72 | 104 | 4.3 | 8.7 | 0.00 | 0.02 | 0.01 | 32 | 1022.9 |
| 20260510213517 | 72 | 83 | 3.5 | 9.6 | 0.00 | 0.02 | 0.01 | 33 | 1022.8 |
| 20260510213032 | 73 | 46 | 3.5 | 9.6 | 0.00 | 0.02 | 0.01 | 32 | 1022.8 |
| 20260510212509 | 73 | 30 | 3.5 | 7.8 | 0.00 | 0.02 | 0.01 | 35 | 1022.7 |
| 20260510212017 | 72 | 48 | 1.7 | 8.7 | 0.00 | 0.02 | 0.01 | 30 | 1022.8 |
| 20260510211531 | 72 | 9 | 3.5 | 11.3 | 0.00 | 0.02 | 0.01 | 31 | 1022.8 |
| 20260510211011 | 71 | 355 | 6.1 | 12.2 | 0.00 | 0.02 | 0.01 | 33 | 1022.8 |
| 20260510210512 | 71 | 5 | 5.2 | 8.7 | 0.00 | 0.02 | 0.01 | 35 | 1022.9 |
| 20260510210031 | 72 | 88 | 3.5 | 13.9 | 0.00 | 0.02 | 0.01 | 32 | 1022.8 |
| 20260510205510 | 72 | 10 | 3.5 | 13.9 | 0.00 | 0.02 | 0.01 | 36 | 1023.0 |
| 20260510205009 | 71 | 188 | 1.7 | 5.2 | 0.00 | 0.02 | 0.01 | 28 | 1022.8 |
| 20260510204530 | 71 | 77 | 1.7 | 9.6 | 0.00 | 0.02 | 0.01 | 33 | 1022.9 |
| 20260510204011 | 71 | 50 | 5.2 | 9.6 | 0.00 | 0.02 | 0.01 | 35 | 1023.1 |
| 20260510203512 | 71 | 13 | 5.2 | 11.3 | 0.00 | 0.02 | 0.01 | 34 | 1023.0 |
| 20260510203032 | 71 | 5 | 7.0 | 11.3 | 0.00 | 0.02 | 0.01 | 34 | 1023.2 |
| 20260510202511 | 71 | 34 | 3.5 | 10.4 | 0.00 | 0.02 | 0.01 | 33 | 1023.2 |
| 20260510202016 | 71 | 30 | 2.6 | 8.7 | 0.00 | 0.02 | 0.01 | 39 | 1023.5 |
| 20260510201529 | 70 | 56 | 2.6 | 8.7 | 0.00 | 0.02 | 0.01 | 34 | 1023.5 |
| 20260510201011 | 70 | 20 | 4.3 | 7.0 | 0.00 | 0.02 | 0.01 | 34 | 1023.5 |
| 20260510200512 | 70 | 165 | 2.6 | 7.8 | 0.00 | 0.02 | 0.01 | 34 | 1023.6 |
| 20260510200033 | 69 | 314 | 3.5 | 9.6 | 0.00 | 0.02 | 0.01 | 40 | 1023.6 |
| 20260510195510 | 69 | 84 | 3.5 | 9.6 | 0.00 | 0.02 | 0.01 | 35 | 1023.7 |
| 20260510195012 | 68 | 319 | 1.7 | 4.3 | 0.00 | 0.02 | 0.01 | 37 | 1023.7 |
| 20260510194542 | 68 | 249 | 0.9 | 9.6 | 0.00 | 0.02 | 0.01 | 32 | 1023.9 |
| 20260510194018 | 68 | 78 | 2.6 | 10.4 | 0.00 | 0.02 | 0.01 | 37 | 1023.9 |
| 20260510193511 | 68 | 86 | 6.1 | 10.4 | 0.00 | 0.02 | 0.01 | 39 | 1023.9 |
| 20260510193032 | 68 | 59 | 3.5 | 7.8 | 0.00 | 0.02 | 0.01 | 37 | 1023.9 |
| 20260510192512 | 69 | 98 | 1.7 | 7.8 | 0.00 | 0.02 | 0.01 | 37 | 1023.9 |
| 20260510192012 | 68 | 5 | 3.5 | 10.4 | 0.00 | 0.02 | 0.01 | 35 | 1024.0 |
| 20260510191533 | 68 | 34 | 4.3 | 11.3 | 0.00 | 0.02 | 0.01 | 38 | 1024.1 |
| 20260510191013 | 68 | 65 | 5.2 | 11.3 | 0.00 | 0.02 | 0.01 | 36 | 1024.1 |
| 20260510190510 | 68 | 90 | 1.7 | 9.6 | 0.00 | 0.02 | 0.01 | 32 | 1024.2 |
| 20260510190032 | 68 | 141 | 6.1 | 9.6 | 0.00 | 0.02 | 0.01 | 31 | 1024.1 |
| 20260510185511 | 68 | 131 | 1.7 | 8.7 | 0.00 | 0.02 | 0.01 | 35 | 1024.2 |
| 20260510185017 | 67 | 339 | 2.6 | 7.8 | 0.00 | 0.02 | 0.01 | 42 | 1024.2 |
| 20260510184530 | 67 | 13 | 3.5 | 7.8 | 0.00 | 0.02 | 0.01 | 41 | 1024.3 |
| 20260510184012 | 67 | 352 | 1.7 | 7.8 | 0.00 | 0.02 | 0.01 | 40 | 1024.3 |
| 20260510183512 | 66 | 23 | 3.5 | 7.8 | 0.00 | 0.02 | 0.01 | 39 | 1024.4 |
| 20260510183032 | 66 | 113 | 3.5 | 8.7 | 0.00 | 0.02 | 0.01 | 33 | 1024.3 |
| 20260510182510 | 66 | 106 | 4.3 | 7.8 | 0.00 | 0.02 | 0.01 | 42 | 1024.5 |
| 20260510182011 | 66 | 91 | 5.2 | 7.8 | 0.00 | 0.02 | 0.01 | 40 | 1024.6 |
| 20260510181531 | 65 | 67 | 3.5 | 8.7 | 0.00 | 0.02 | 0.01 | 40 | 1024.6 |
| 20260510181011 | 65 | 55 | 3.5 | 10.4 | 0.00 | 0.02 | 0.01 | 45 | 1024.7 |
| 20260510180511 | 65 | 105 | 2.6 | 7.0 | 0.00 | 0.02 | 0.01 | 40 | 1024.7 |
| 20260510180032 | 66 | 101 | 0.9 | 8.7 | 0.00 | 0.02 | 0.01 | 36 | 1024.8 |
| 20260510175514 | 66 | 118 | 3.5 | 7.8 | 0.00 | 0.02 | 0.01 | 39 | 1024.8 |
| 20260510175014 | 65 | 60 | 2.6 | 6.1 | 0.00 | 0.02 | 0.01 | 38 | 1024.8 |
| 20260510174530 | 65 | 32 | 2.6 | 7.8 | 0.00 | 0.02 | 0.01 | 39 | 1024.7 |
| 20260510174014 | 64 | 98 | 3.5 | 7.8 | 0.00 | 0.02 | 0.01 | 39 | 1024.7 |
| 20260510173511 | 64 | 74 | 4.3 | 7.8 | 0.00 | 0.02 | 0.01 | 39 | 1024.7 |
| 20260510173032 | 64 | 125 | 2.6 | 7.8 | 0.00 | 0.02 | 0.01 | 36 | 1024.7 |
| 20260510172514 | 64 | 93 | 1.7 | 7.8 | 0.00 | 0.02 | 0.01 | 43 | 1024.8 |
| 20260510172014 | 64 | 99 | 3.5 | 7.8 | 0.00 | 0.02 | 0.01 | 36 | 1024.9 |
| 20260510171530 | 64 | 100 | 4.3 | 7.8 | 0.00 | 0.02 | 0.01 | 39 | 1025.0 |
| 20260510171010 | 64 | 148 | 2.6 | 7.8 | 0.00 | 0.02 | 0.01 | 42 | 1025.1 |
| 20260510170510 | 63 | 123 | 4.3 | 8.7 | 0.00 | 0.02 | 0.01 | 42 | 1024.8 |
| 20260510170031 | 63 | 128 | 5.2 | 8.7 | 0.00 | 0.02 | 0.01 | 36 | 1024.9 |
| 20260510165511 | 63 | 80 | 2.6 | 7.8 | 0.00 | 0.02 | 0.01 | 45 | 1025.1 |
| 20260510165014 | 63 | 119 | 5.2 | 7.8 | 0.00 | 0.02 | 0.01 | 37 | 1024.8 |
| 20260510164536 | 62 | 100 | 1.7 | 7.8 | 0.00 | 0.02 | 0.01 | 43 | 1024.7 |
| 20260510164010 | 62 | 94 | 2.6 | 7.8 | 0.00 | 0.02 | 0.01 | 47 | 1024.7 |
| 20260510163510 | 62 | 82 | 1.7 | 6.1 | 0.00 | 0.02 | 0.01 | 49 | 1024.9 |
| 20260510163048 | 62 | 96 | 1.7 | 6.1 | 0.00 | 0.02 | 0.01 | 47 | 1025.0 |
| 20260510162514 | 61 | 159 | 2.6 | 6.1 | 0.00 | 0.02 | 0.01 | 45 | 1024.9 |
| 20260510162017 | 61 | 191 | 0.9 | 7.0 | 0.00 | 0.02 | 0.01 | 46 | 1024.9 |
| 20260510161536 | 60 | 115 | 2.6 | 6.1 | 0.00 | 0.02 | 0.01 | 45 | 1024.6 |
| 20260510161013 | 60 | 169 | 2.6 | 7.0 | 0.00 | 0.02 | 0.01 | 44 | 1024.7 |
| 20260510160512 | 60 | 113 | 3.5 | 7.0 | 0.00 | 0.02 | 0.01 | 46 | 1024.7 |
| 20260510160050 | 60 | 136 | 3.5 | 7.8 | 0.00 | 0.02 | 0.01 | 46 | 1024.8 |
| 20260510155520 | 59 | 157 | 3.5 | 7.8 | 0.00 | 0.02 | 0.01 | 47 | 1024.7 |
| 20260510155011 | 59 | 123 | 3.5 | 6.1 | 0.00 | 0.02 | 0.01 | 46 | 1024.7 |
| 20260510154532 | 59 | 128 | 3.5 | 6.1 | 0.00 | 0.02 | 0.01 | 46 | 1024.6 |
| 20260510154011 | 59 | 144 | 3.5 | 6.1 | 0.00 | 0.02 | 0.01 | 48 | 1024.7 |
| 20260510153518 | 58 | 135 | 3.5 | 5.2 | 0.00 | 0.02 | 0.01 | 50 | 1024.6 |
| 20260510153044 | 58 | 162 | 1.7 | 4.3 | 0.00 | 0.02 | 0.01 | 48 | 1024.5 |
| 20260510152517 | 58 | 119 | 1.7 | 5.2 | 0.00 | 0.02 | 0.01 | 51 | 1024.2 |
| 20260510152015 | 58 | 169 | 2.6 | 4.3 | 0.00 | 0.02 | 0.01 | 50 | 1024.1 |
| 20260510151537 | 57 | 146 | 2.6 | 6.1 | 0.00 | 0.02 | 0.01 | 50 | 1024.1 |
| 20260510151013 | 57 | 130 | 3.5 | 6.1 | 0.00 | 0.02 | 0.01 | 52 | 1024.2 |
| 20260510150510 | 57 | 128 | 2.6 | 4.3 | 0.00 | 0.02 | 0.01 | 54 | 1024.1 |
| 20260510150039 | 57 | 140 | 1.7 | 3.5 | 0.00 | 0.02 | 0.01 | 53 | 1024.3 |
| 20260510145517 | 56 | 163 | 1.7 | 3.5 | 0.00 | 0.02 | 0.01 | 53 | 1024.3 |
| 20260510145016 | 56 | 151 | 0.0 | 2.6 | 0.00 | 0.02 | 0.01 | 55 | 1024.1 |
| 20260510144542 | 55 | 173 | 0.9 | 2.6 | 0.00 | 0.02 | 0.01 | 58 | 1023.9 |
| 20260510144016 | 55 | 103 | 0.0 | 0.9 | 0.00 | 0.02 | 0.01 | 61 | 1024.3 |
| 20260510143513 | 55 | 103 | 0.0 | 1.7 | 0.00 | 0.02 | 0.01 | 62 | 1024.0 |
| 20260510143046 | 54 | 103 | 0.0 | 2.6 | 0.00 | 0.02 | 0.01 | 63 | 1023.9 |
| 20260510142515 | 54 | 103 | 0.9 | 2.6 | 0.00 | 0.02 | 0.01 | 61 | 1023.8 |
| 20260510142011 | 54 | 103 | 0.9 | 2.6 | 0.00 | 0.02 | 0.01 | 61 | 1023.8 |
| 20260510141538 | 54 | 92 | 0.9 | 2.6 | 0.00 | 0.02 | 0.01 | 62 | 1023.7 |
| 20260510141011 | 54 | 106 | 0.9 | 2.6 | 0.00 | 0.02 | 0.01 | 62 | 1023.5 |
| 20260510140510 | 54 | 94 | 0.9 | 2.6 | 0.00 | 0.02 | 0.01 | 61 | 1023.6 |
| 20260510140033 | 54 | 96 | 1.7 | 3.5 | 0.00 | 0.02 | 0.01 | 61 | 1023.6 |
| 20260510135521 | 54 | 101 | 0.9 | 3.5 | 0.00 | 0.02 | 0.01 | 58 | 1023.6 |
| 20260510135011 | 54 | 115 | 0.9 | 3.5 | 0.00 | 0.02 | 0.01 | 59 | 1023.4 |
| 20260510134536 | 54 | 109 | 1.7 | 5.2 | 0.00 | 0.02 | 0.01 | 58 | 1023.3 |
| 20260510134014 | 54 | 94 | 1.7 | 5.2 | 0.00 | 0.02 | 0.01 | 60 | 1023.1 |
| 20260510133513 | 54 | 90 | 1.7 | 7.0 | 0.00 | 0.02 | 0.01 | 60 | 1023.1 |
| 20260510133036 | 54 | 63 | 2.6 | 7.0 | 0.00 | 0.02 | 0.01 | 59 | 1023.0 |
| 20260510132514 | 54 | 90 | 2.6 | 7.0 | 0.00 | 0.02 | 0.01 | 59 | 1022.8 |
| 20260510132011 | 54 | 90 | 3.5 | 7.0 | 0.00 | 0.02 | 0.01 | 58 | 1022.7 |
| 20260510131533 | 54 | 82 | 2.6 | 8.7 | 0.00 | 0.02 | 0.01 | 59 | 1022.6 |
| 20260510131014 | 54 | 89 | 3.5 | 8.7 | 0.00 | 0.02 | 0.01 | 58 | 1022.6 |
| 20260510130514 | 54 | 71 | 2.6 | 7.0 | 0.00 | 0.02 | 0.01 | 58 | 1022.5 |
| 20260510130032 | 54 | 76 | 2.6 | 7.0 | 0.00 | 0.02 | 0.01 | 59 | 1022.4 |
| 20260510125511 | 54 | 75 | 2.6 | 6.1 | 0.00 | 0.02 | 0.01 | 59 | 1022.3 |
| 20260510125013 | 54 | 77 | 1.7 | 6.1 | 0.00 | 0.02 | 0.01 | 60 | 1022.3 |
| 20260510124547 | 54 | 86 | 1.7 | 6.1 | 0.00 | 0.02 | 0.01 | 60 | 1022.3 |
| 20260510124013 | 54 | 91 | 2.6 | 7.0 | 0.00 | 0.02 | 0.01 | 59 | 1022.1 |
| 20260510123514 | 54 | 76 | 2.6 | 7.0 | 0.00 | 0.02 | 0.01 | 59 | 1022.2 |
| 20260510123037 | 54 | 79 | 3.5 | 7.8 | 0.00 | 0.02 | 0.01 | 59 | 1022.0 |
| 20260510122513 | 54 | 74 | 3.5 | 7.8 | 0.00 | 0.02 | 0.01 | 59 | 1021.8 |
| 20260510122013 | 54 | 58 | 4.3 | 7.8 | 0.00 | 0.02 | 0.01 | 60 | 1021.6 |
| 20260510121536 | 54 | 58 | 4.3 | 7.8 | 0.00 | 0.02 | 0.01 | 59 | 1021.6 |
| 20260510121012 | 54 | 52 | 2.6 | 9.6 | 0.00 | 0.02 | 0.01 | 59 | 1021.5 |
| 20260510120518 | 54 | 70 | 4.3 | 10.4 | 0.00 | 0.02 | 0.01 | 58 | 1021.3 |
| 20260510120036 | 54 | 59 | 5.2 | 10.4 | 0.00 | 0.02 | 0.01 | 58 | 1021.1 |
| 20260510115519 | 54 | 55 | 5.2 | 11.3 | 0.00 | 0.02 | 0.01 | 57 | 1020.7 |
| 20260510115013 | 54 | 70 | 6.1 | 11.3 | 0.00 | 0.02 | 0.01 | 57 | 1020.7 |
| 20260510114534 | 54 | 57 | 6.1 | 11.3 | 0.00 | 0.02 | 0.01 | 57 | 1020.3 |
| 20260510114013 | 54 | 75 | 6.1 | 11.3 | 0.00 | 0.02 | 0.01 | 58 | 1020.3 |
| 20260510113514 | 54 | 44 | 4.3 | 11.3 | 0.00 | 0.02 | 0.01 | 58 | 1020.1 |
| 20260510113037 | 54 | 73 | 6.1 | 11.3 | 0.00 | 0.02 | 0.01 | 58 | 1020.4 |
| 20260510112514 | 54 | 69 | 6.1 | 11.3 | 0.00 | 0.02 | 0.01 | 59 | 1020.4 |
| 20260510112014 | 54 | 46 | 7.0 | 11.3 | 0.00 | 0.02 | 0.01 | 59 | 1020.4 |
| 20260510111544 | 54 | 59 | 7.8 | 12.2 | 0.00 | 0.02 | 0.01 | 59 | 1020.3 |
| 20260510111013 | 54 | 53 | 7.8 | 12.2 | 0.00 | 0.02 | 0.01 | 59 | 1020.2 |
| 20260510110513 | 53 | 46 | 5.2 | 11.3 | 0.00 | 0.02 | 0.01 | 62 | 1020.0 |
| 20260510110037 | 53 | 72 | 7.0 | 12.2 | 0.01 | 0.02 | 0.01 | 63 | 1019.8 |
| 20260510105513 | 53 | 90 | 7.8 | 13.0 | 0.01 | 0.02 | 0.01 | 63 | 1019.6 |
| 20260510105016 | 53 | 88 | 7.0 | 13.0 | 0.01 | 0.02 | 0.01 | 66 | 1019.7 |
| 20260510104545 | 53 | 73 | 7.8 | 11.3 | 0.01 | 0.02 | 0.01 | 67 | 1019.6 |
| 20260510104014 | 53 | 56 | 7.0 | 12.2 | 0.01 | 0.02 | 0.01 | 68 | 1019.7 |
| 20260510103513 | 53 | 65 | 7.0 | 9.6 | 0.01 | 0.02 | 0.01 | 70 | 1019.6 |
| 20260510103034 | 53 | 51 | 4.3 | 10.4 | 0.01 | 0.02 | 0.01 | 70 | 1019.7 |
| 20260510102512 | 54 | 62 | 4.3 | 10.4 | 0.01 | 0.02 | 0.01 | 70 | 1019.5 |
| 20260510102018 | 54 | 78 | 5.2 | 10.4 | 0.01 | 0.02 | 0.01 | 72 | 1019.6 |
| 20260510101539 | 54 | 73 | 4.3 | 9.6 | 0.01 | 0.02 | 0.01 | 72 | 1019.5 |
| 20260510101014 | 55 | 65 | 5.2 | 9.6 | 0.01 | 0.02 | 0.01 | 71 | 1019.7 |
| 20260510100513 | 55 | 55 | 5.2 | 9.6 | 0.00 | 0.01 | 0.00 | 70 | 1019.7 |
| 20260510100035 | 56 | 40 | 6.1 | 11.3 | 0.00 | 0.01 | 0.00 | 68 | 1019.7 |
| 20260510095514 | 55 | 36 | 6.1 | 11.3 | 0.00 | 0.01 | 0.00 | 67 | 1019.7 |
| 20260510095013 | 55 | 42 | 5.2 | 7.8 | 0.00 | 0.01 | 0.00 | 68 | 1019.6 |
| 20260510094537 | 55 | 58 | 3.5 | 7.8 | 0.00 | 0.01 | 0.00 | 70 | 1019.5 |
| 20260510094013 | 55 | 57 | 4.3 | 11.3 | 0.00 | 0.01 | 0.00 | 70 | 1019.5 |
| 20260510093511 | 56 | 48 | 6.1 | 11.3 | 0.00 | 0.01 | 0.00 | 70 | 1019.5 |
| 20260510093043 | 56 | 43 | 4.3 | 12.2 | 0.00 | 0.01 | 0.00 | 69 | 1019.6 |
| 20260510092511 | 57 | 31 | 5.2 | 12.2 | 0.00 | 0.01 | 0.00 | 68 | 1019.7 |
| 20260510092014 | 57 | 38 | 6.1 | 10.4 | 0.00 | 0.01 | 0.00 | 67 | 1019.8 |
| 20260510091536 | 57 | 360 | 5.2 | 10.4 | 0.00 | 0.01 | 0.00 | 67 | 1019.7 |
| 20260510091013 | 57 | 19 | 5.2 | 9.6 | 0.00 | 0.01 | 0.00 | 68 | 1019.4 |
| 20260510090514 | 57 | 44 | 6.1 | 10.4 | 0.00 | 0.01 | 0.00 | 68 | 1019.4 |
| 20260510090042 | 57 | 57 | 6.1 | 10.4 | 0.00 | 0.01 | 0.00 | 69 | 1019.4 |
| 20260510085513 | 57 | 20 | 7.0 | 10.4 | 0.00 | 0.01 | 0.00 | 71 | 1019.4 |
| 20260510085012 | 57 | 53 | 6.1 | 9.6 | 0.00 | 0.01 | 0.00 | 72 | 1019.3 |
| 20260510084539 | 57 | 16 | 6.1 | 10.4 | 0.00 | 0.01 | 0.00 | 73 | 1019.2 |
| 20260510084015 | 57 | 46 | 5.2 | 10.4 | 0.00 | 0.01 | 0.00 | 74 | 1018.9 |
| 20260510083518 | 56 | 17 | 6.1 | 9.6 | 0.00 | 0.01 | 0.00 | 74 | 1018.9 |
| 20260510083044 | 56 | 32 | 5.2 | 8.7 | 0.00 | 0.01 | 0.00 | 75 | 1018.8 |
| 20260510082512 | 56 | 40 | 3.5 | 7.8 | 0.00 | 0.01 | 0.00 | 76 | 1018.8 |
| 20260510082013 | 56 | 24 | 2.6 | 5.2 | 0.00 | 0.01 | 0.00 | 76 | 1018.8 |
| 20260510081546 | 56 | 5 | 3.5 | 5.2 | 0.00 | 0.01 | 0.00 | 75 | 1018.7 |
| 20260510081014 | 56 | 16 | 3.5 | 5.2 | 0.00 | 0.01 | 0.00 | 75 | 1018.5 |
| 20260510080515 | 55 | 20 | 2.6 | 4.3 | 0.00 | 0.01 | 0.00 | 75 | 1018.3 |
| 20260510080037 | 55 | 29 | 1.7 | 4.3 | 0.00 | 0.01 | 0.00 | 75 | 1018.2 |
| 20260510075513 | 55 | 22 | 2.6 | 4.3 | 0.00 | 0.01 | 0.00 | 74 | 1018.2 |
| 20260510075013 | 55 | 26 | 1.7 | 4.3 | 0.00 | 0.01 | 0.00 | 73 | 1018.0 |
| 20260510074537 | 56 | 43 | 1.7 | 4.3 | 0.00 | 0.01 | 0.00 | 73 | 1017.9 |
| 20260510074016 | 56 | 33 | 1.7 | 3.5 | 0.00 | 0.01 | 0.00 | 72 | 1017.8 |
| 20260510073518 | 56 | 47 | 1.7 | 3.5 | 0.00 | 0.01 | 0.00 | 72 | 1017.7 |
| 20260510073052 | 56 | 15 | 1.7 | 4.3 | 0.00 | 0.01 | 0.00 | 72 | 1017.6 |
| 20260510072521 | 56 | 38 | 1.7 | 4.3 | 0.00 | 0.01 | 0.00 | 73 | 1017.7 |
| 20260510072015 | 56 | 17 | 1.7 | 5.2 | 0.00 | 0.01 | 0.00 | 73 | 1017.7 |
| 20260510071538 | 56 | 38 | 2.6 | 4.3 | 0.00 | 0.01 | 0.00 | 74 | 1017.6 |
| 20260510071014 | 56 | 36 | 1.7 | 4.3 | 0.00 | 0.01 | 0.00 | 74 | 1017.5 |
| 20260510070516 | 56 | 42 | 2.6 | 4.3 | 0.00 | 0.01 | 0.00 | 75 | 1017.3 |
| 20260510070050 | 55 | 49 | 1.7 | 4.3 | 0.00 | 0.01 | 0.00 | 75 | 1017.3 |
| 20260510065515 | 56 | 42 | 1.7 | 3.5 | 0.00 | 0.01 | 0.00 | 74 | 1017.1 |
| 20260510065013 | 56 | 42 | 1.7 | 3.5 | 0.00 | 0.01 | 0.00 | 74 | 1016.9 |
| 20260510064550 | 56 | 53 | 1.7 | 4.3 | 0.00 | 0.01 | 0.00 | 73 | 1016.7 |
| 20260510064013 | 56 | 51 | 2.6 | 4.3 | 0.00 | 0.01 | 0.00 | 73 | 1016.7 |
| 20260510063512 | 56 | 63 | 1.7 | 4.3 | 0.00 | 0.01 | 0.00 | 73 | 1016.7 |
| 20260510063046 | 56 | 63 | 2.6 | 4.3 | 0.00 | 0.01 | 0.00 | 73 | 1016.9 |
| 20260510062515 | 56 | 67 | 2.6 | 4.3 | 0.00 | 0.01 | 0.00 | 74 | 1017.1 |
| 20260510062020 | 56 | 38 | 2.6 | 4.3 | 0.00 | 0.01 | 0.00 | 75 | 1017.1 |
| 20260510061547 | 56 | 20 | 2.6 | 3.5 | 0.00 | 0.01 | 0.00 | 75 | 1017.2 |
| 20260510061015 | 56 | 23 | 1.7 | 3.5 | 0.00 | 0.01 | 0.00 | 75 | 1016.8 |
| 20260510060515 | 56 | 46 | 1.7 | 5.2 | 0.00 | 0.01 | 0.00 | 74 | 1016.7 |
| 20260510060047 | 57 | 66 | 1.7 | 5.2 | 0.00 | 0.01 | 0.00 | 74 | 1016.4 |
| 20260510055513 | 57 | 63 | 1.7 | 3.5 | 0.00 | 0.01 | 0.00 | 74 | 1016.4 |
| 20260510055015 | 58 | 63 | 1.7 | 4.3 | 0.00 | 0.01 | 0.00 | 73 | 1016.4 |
| 20260510054539 | 58 | 63 | 1.7 | 5.2 | 0.00 | 0.01 | 0.00 | 73 | 1016.3 |
| 20260510054019 | 58 | 63 | 2.6 | 5.2 | 0.00 | 0.01 | 0.00 | 73 | 1016.4 |
| 20260510053513 | 58 | 53 | 2.6 | 5.2 | 0.00 | 0.01 | 0.00 | 73 | 1016.3 |
| 20260510053102 | 59 | 44 | 2.6 | 4.3 | 0.00 | 0.01 | 0.00 | 73 | 1016.0 |
| 20260510052515 | 59 | 50 | 1.7 | 4.3 | 0.00 | 0.01 | 0.00 | 72 | 1016.0 |
| 20260510052015 | 59 | 59 | 2.6 | 5.2 | 0.00 | 0.01 | 0.00 | 72 | 1016.1 |
| 20260510051551 | 59 | 48 | 2.6 | 5.2 | 0.00 | 0.01 | 0.00 | 71 | 1016.3 |
| 20260510051017 | 60 | 42 | 2.6 | 4.3 | 0.00 | 0.01 | 0.00 | 71 | 1016.1 |
| 20260510050514 | 60 | 59 | 1.7 | 3.5 | 0.00 | 0.01 | 0.00 | 71 | 1016.3 |
| 20260510050100 | 60 | 65 | 1.7 | 5.2 | 0.00 | 0.01 | 0.00 | 70 | 1016.4 |
| 20260510045515 | 60 | 50 | 2.6 | 7.8 | 0.00 | 0.01 | 0.01 | 69 | 1016.2 |
| 20260510045013 | 60 | 64 | 3.5 | 7.8 | 0.00 | 0.01 | 0.01 | 68 | 1015.8 |
| 20260510044554 | 60 | 78 | 4.3 | 7.8 | 0.00 | 0.01 | 0.01 | 68 | 1015.7 |
| 20260510044016 | 60 | 69 | 4.3 | 7.8 | 0.00 | 0.01 | 0.01 | 68 | 1015.8 |
| 20260510043513 | 61 | 60 | 4.3 | 7.8 | 0.00 | 0.01 | 0.01 | 68 | 1015.7 |
| 20260510043056 | 61 | 40 | 3.5 | 6.1 | 0.00 | 0.01 | 0.01 | 68 | 1015.9 |
| 20260510042515 | 61 | 61 | 4.3 | 7.8 | 0.00 | 0.01 | 0.01 | 67 | 1015.6 |
| 20260510042015 | 61 | 73 | 4.3 | 7.8 | 0.00 | 0.01 | 0.01 | 68 | 1015.5 |
| 20260510041547 | 60 | 49 | 4.3 | 6.1 | 0.00 | 0.01 | 0.01 | 68 | 1015.7 |
| 20260510041016 | 60 | 57 | 2.6 | 6.1 | 0.00 | 0.01 | 0.01 | 69 | 1015.4 |
| 20260510040523 | 60 | 57 | 3.5 | 5.2 | 0.00 | 0.01 | 0.01 | 70 | 1015.2 |
| 20260510040051 | 60 | 44 | 2.6 | 4.3 | 0.00 | 0.01 | 0.01 | 70 | 1015.4 |
| 20260510035513 | 60 | 55 | 1.7 | 4.3 | 0.00 | 0.01 | 0.01 | 71 | 1015.2 |
| 20260510035013 | 60 | 63 | 1.7 | 2.6 | 0.00 | 0.01 | 0.01 | 71 | 1015.0 |
| 20260510034544 | 60 | 63 | 0.9 | 2.6 | 0.00 | 0.01 | 0.01 | 72 | 1014.9 |
| 20260510034015 | 60 | 63 | 1.7 | 3.5 | 0.00 | 0.01 | 0.01 | 72 | 1014.9 |
| 20260510033514 | 60 | 60 | 2.6 | 3.5 | 0.00 | 0.01 | 0.01 | 72 | 1014.9 |
| 20260510033058 | 60 | 30 | 2.6 | 3.5 | 0.00 | 0.01 | 0.01 | 72 | 1014.7 |
| 20260510032514 | 60 | 54 | 0.9 | 1.7 | 0.00 | 0.01 | 0.01 | 71 | 1014.7 |
| 20260510032018 | 60 | 54 | 0.9 | 2.6 | 0.00 | 0.01 | 0.01 | 72 | 1014.6 |
| 20260510031553 | 60 | 54 | 1.7 | 2.6 | 0.00 | 0.01 | 0.01 | 72 | 1014.5 |
| 20260510031016 | 59 | 54 | 0.9 | 1.7 | 0.00 | 0.01 | 0.01 | 73 | 1014.3 |
| 20260510030519 | 59 | 54 | 0.9 | 1.7 | 0.00 | 0.01 | 0.01 | 74 | 1014.0 |
| 20260510030106 | 59 | 54 | 0.9 | 2.6 | 0.00 | 0.01 | 0.01 | 75 | 1013.8 |
| 20260510025515 | 59 | 47 | 0.9 | 3.5 | 0.00 | 0.01 | 0.01 | 75 | 1013.7 |
| 20260510025018 | 60 | 47 | 1.7 | 4.3 | 0.00 | 0.01 | 0.01 | 74 | 1013.7 |
| 20260510024548 | 60 | 47 | 1.7 | 3.5 | 0.00 | 0.01 | 0.01 | 74 | 1013.5 |
| 20260510024015 | 60 | 53 | 1.7 | 3.5 | 0.00 | 0.01 | 0.01 | 74 | 1013.4 |
| 20260510023516 | 60 | 47 | 1.7 | 3.5 | 0.00 | 0.01 | 0.01 | 74 | 1013.3 |
| 20260510023047 | 60 | 55 | 1.7 | 3.5 | 0.00 | 0.01 | 0.01 | 73 | 1013.2 |
| 20260510022514 | 60 | 34 | 1.7 | 2.6 | 0.00 | 0.01 | 0.01 | 74 | 1013.3 |
| 20260510022015 | 60 | 83 | 0.0 | 1.7 | 0.00 | 0.01 | 0.01 | 74 | 1013.1 |
| 20260510021544 | 61 | 83 | 0.0 | 1.7 | 0.00 | 0.01 | 0.01 | 74 | 1013.1 |
| 20260510021013 | 61 | 83 | 0.0 | 0.9 | 0.00 | 0.01 | 0.01 | 75 | 1012.9 |
| 20260510020514 | 61 | 83 | 0.0 | 2.6 | 0.00 | 0.01 | 0.01 | 73 | 1012.8 |
| 20260510020052 | 61 | 83 | 0.0 | 3.5 | 0.00 | 0.01 | 0.01 | 72 | 1012.7 |
| 20260510015514 | 62 | 85 | 1.7 | 3.5 | 0.00 | 0.01 | 0.01 | 71 | 1012.3 |
| 20260510015014 | 62 | 68 | 0.9 | 2.6 | 0.01 | 0.01 | 0.01 | 70 | 1012.3 |
| 20260510014535 | 62 | 68 | 1.7 | 2.6 | 0.01 | 0.01 | 0.01 | 69 | 1012.4 |
| 20260510014012 | 63 | 52 | 1.7 | 2.6 | 0.01 | 0.01 | 0.01 | 69 | 1012.4 |
| 20260510013510 | 63 | 68 | 0.9 | 3.5 | 0.01 | 0.01 | 0.01 | 69 | 1012.6 |
| 20260510013034 | 64 | 67 | 1.7 | 3.5 | 0.01 | 0.01 | 0.01 | 68 | 1012.2 |
| 20260510012510 | 64 | 68 | 2.6 | 3.5 | 0.01 | 0.01 | 0.01 | 66 | 1011.9 |
| 20260510012013 | 65 | 76 | 0.9 | 5.2 | 0.01 | 0.01 | 0.01 | 64 | 1011.9 |
| 20260510011531 | 65 | 61 | 2.6 | 5.2 | 0.01 | 0.01 | 0.01 | 65 | 1011.7 |
| 20260510011008 | 66 | 77 | 2.6 | 5.2 | 0.01 | 0.01 | 0.01 | 64 | 1011.8 |
| 20260510010509 | 67 | 137 | 0.9 | 2.6 | 0.01 | 0.01 | 0.01 | 63 | 1012.0 |
| 20260510010033 | 68 | 88 | 0.0 | 7.8 | 0.01 | 0.01 | 0.01 | 59 | 1012.1 |
| 20260510005513 | 69 | 100 | 1.7 | 8.7 | 0.01 | 0.01 | 0.01 | 54 | 1011.5 |
| 20260510005008 | 71 | 82 | 2.6 | 13.0 | 0.00 | 0.00 | 0.00 | 52 | 1012.3 |
| 20260510004535 | 72 | 346 | 8.7 | 13.0 | 0.00 | 0.00 | 0.00 | 44 | 1013.0 |
| 20260510004013 | 72 | 346 | 7.0 | 12.2 | 0.00 | 0.00 | 0.00 | 45 | 1012.7 |
| 20260510003512 | 73 | 343 | 7.0 | 12.2 | 0.00 | 0.00 | 0.00 | 44 | 1012.4 |
| 20260510003037 | 73 | 32 | 7.0 | 9.6 | 0.00 | 0.00 | 0.00 | 43 | 1011.7 |
| 20260510002511 | 73 | 32 | 4.3 | 10.4 | 0.00 | 0.00 | 0.00 | 43 | 1011.5 |
| 20260510002009 | 73 | 53 | 7.0 | 12.2 | 0.00 | 0.00 | 0.00 | 42 | 1011.3 |
| 20260510001537 | 74 | 32 | 7.0 | 12.2 | 0.00 | 0.00 | 0.00 | 42 | 1011.1 |
| 20260510001010 | 74 | 50 | 7.8 | 12.2 | 0.00 | 0.00 | 0.00 | 42 | 1010.8 |
| 20260510000511 | 74 | 57 | 7.0 | 13.0 | 0.00 | 0.00 | 0.00 | 42 | 1010.8 |
| 20260510000040 | 74 | 54 | 8.7 | 13.0 | 0.00 | 0.00 | 0.00 | 42 | 1010.7 |
| 20260509235512 | 74 | 65 | 7.0 | 14.8 | 0.00 | 0.00 | 0.00 | 42 | 1010.3 |
| 20260509235015 | 75 | 65 | 6.1 | 18.2 | 0.00 | 0.00 | 0.00 | 43 | 1010.2 |
| 20260509234542 | 75 | 55 | 8.7 | 18.2 | 0.00 | 0.00 | 0.00 | 42 | 1009.9 |
| 20260509234013 | 75 | 57 | 7.0 | 12.2 | 0.00 | 0.00 | 0.00 | 43 | 1009.6 |
| 20260509233513 | 75 | 82 | 2.6 | 7.0 | 0.00 | 0.00 | 0.00 | 45 | 1009.7 |
| 20260509233032 | 75 | 76 | 1.7 | 3.5 | 0.00 | 0.00 | 0.00 | 48 | 1009.8 |
| 20260509232514 | 76 | 90 | 1.7 | 5.2 | 0.00 | 0.00 | 0.00 | 46 | 1009.8 |
| 20260509232011 | 76 | 84 | 3.5 | 5.2 | 0.00 | 0.00 | 0.00 | 43 | 1009.6 |
| 20260509231533 | 76 | 66 | 2.6 | 4.3 | 0.00 | 0.00 | 0.00 | 45 | 1009.6 |